Weather History for Edinburgh Airport, United Kingdom

Change the Weather History Date:

Saturday, October 29, 2011

  Actual Average Record
Temperature  
Mean Temperature 54 °F -  
Max Temperature 57 °F 48 °F 60 °F (2005)
Min Temperature 51 °F 36 °F 23 °F (1997)
Degree Days  
Heating Degree Days 11    
Growing Degree Days 4 (Base 50)    
Moisture  
Dew Point 48 °F    
Average Humidity 80    
Maximum Humidity 88    
Minimum Humidity 72    
Precipitation  
Precipitation 0.00 in 0.08 in - ()
Sea Level Pressure  
Sea Level Pressure 29.78 in    
Wind  
Wind Speed 13 mph ()    
Max Wind Speed 25 mph    
Max Gust Speed 34 mph    
Visibility 6.1 miles    
Events Rain    
Averages and records for this station are not official NWS values.
T = Trace of Precipitation, MM = Missing Value Source: Averaged Metar Reports

Daily Weather History Graph

Daily Weather History Graph

Search for Another Location

Airport:

Trip Planner

Search our weather history database for the weather conditions in past years. The results will help you decide how hot, cold, wet, or windy it might be!

Date:

Astronomy

Oct. 29, 2011 Rise Set
Actual Time 8:12 AM BST 5:40 PM BST
Civil Twilight 7:33 AM BST 6:19 PM BST
Nautical Twilight 6:50 AM BST 7:03 PM BST
Astronomical Twilight 6:07 AM BST 7:46 PM BST
Moon 11:58 AM BST (10/29) 7:09 PM BST (10/29)
Length of Visible Light 10h 45m
Length of Day
9h 27m
Waxing Crescent, 10% of the Moon is Illuminated
Oct 29
Waxing Crescent
Nov 2
First Quarter
Nov 10
Full
Nov 18
Last Quarter
Nov 25
New

Hourly Weather History & Observations

Time (BST) Temp. Dew Point Humidity Pressure Visibility Wind Dir Wind Speed Gust Speed Precip Events Conditions
12:20 AM 53.6 °F 44.6 °F 72% 29.98 in 6.2 mi SSW 13.8 mph - N/A   Mostly Cloudy
12:50 AM 53.6 °F 44.6 °F 72% 29.98 in 6.2 mi SSW 13.8 mph - N/A   Mostly Cloudy
1:20 AM 53.6 °F 46.4 °F 77% 29.98 in 6.2 mi SW 12.7 mph - N/A   Mostly Cloudy
1:50 AM 51.8 °F 46.4 °F 82% 29.98 in 6.2 mi SW 9.2 mph - N/A   Mostly Cloudy
2:20 AM 53.6 °F 46.4 °F 77% 29.98 in 6.2 mi SW 16.1 mph - N/A   Overcast
2:50 AM 53.6 °F 46.4 °F 77% 29.95 in 6.2 mi SW 13.8 mph - N/A   Overcast
3:20 AM 53.6 °F 46.4 °F 77% 29.95 in 6.2 mi SW 9.2 mph - N/A Rain Light Rain
3:50 AM 53.6 °F 46.4 °F 77% 29.95 in 6.2 mi SW 13.8 mph - N/A Rain Light Rain
4:20 AM 53.6 °F 46.4 °F 77% 29.92 in 6.2 mi SSW 12.7 mph - N/A   Mostly Cloudy
4:50 AM 53.6 °F 46.4 °F 77% 29.89 in - SSW 15.0 mph - N/A   Clear
5:20 AM 51.8 °F 48.2 °F 88% 29.89 in 5.6 mi SW 10.4 mph - N/A Rain Light Rain
5:50 AM 51.8 °F 48.2 °F 88% 29.89 in 6.2 mi SSW 9.2 mph - N/A Rain Light Rain
6:20 AM 51.8 °F 46.4 °F 82% 29.86 in 6.2 mi SSW 12.7 mph - N/A Rain Light Rain
6:50 AM 51.8 °F 48.2 °F 88% 29.86 in 6.2 mi SSW 9.2 mph - N/A Rain Light Rain
7:20 AM 51.8 °F 46.4 °F 82% 29.83 in 6.2 mi SW 8.1 mph - N/A   Scattered Clouds
7:50 AM 51.8 °F 46.4 °F 82% 29.83 in 6.2 mi Variable 9.2 mph - N/A   Scattered Clouds
8:20 AM 51.8 °F 46.4 °F 82% 29.83 in 6.2 mi SSW 12.7 mph - N/A   Mostly Cloudy
8:50 AM 51.8 °F 46.4 °F 82% 29.83 in 6.2 mi South 13.8 mph - N/A   Scattered Clouds
9:20 AM 51.8 °F 46.4 °F 82% 29.80 in 6.2 mi South 15.0 mph - N/A   Scattered Clouds
9:50 AM 51.8 °F 46.4 °F 82% 29.80 in 6.2 mi South 17.3 mph 33.4 mph N/A Rain Light Rain
10:20 AM 51.8 °F 46.4 °F 82% 29.80 in 6.2 mi SW 11.5 mph - N/A   Scattered Clouds
10:50 AM 51.8 °F 46.4 °F 82% 29.77 in 6.2 mi SW 16.1 mph - N/A   Partly Cloudy
11:20 AM 53.6 °F 46.4 °F 77% 29.77 in 6.2 mi SSW 25.3 mph - N/A   Scattered Clouds
11:50 AM 55.4 °F 48.2 °F 77% 29.77 in 6.2 mi SW 21.9 mph - N/A   Scattered Clouds
12:20 PM 57.2 °F 48.2 °F 72% 29.77 in 6.2 mi SSW 23.0 mph 34.5 mph N/A   Scattered Clouds
12:50 PM 57.2 °F 48.2 °F 72% 29.74 in 6.2 mi South 18.4 mph - N/A   Scattered Clouds
1:20 PM 57.2 °F 48.2 °F 72% 29.74 in 6.2 mi South 18.4 mph - N/A   Partly Cloudy
1:50 PM 57.2 °F 48.2 °F 72% 29.71 in 6.2 mi South 18.4 mph - N/A   Scattered Clouds
2:20 PM 57.2 °F 48.2 °F 72% 29.71 in 6.2 mi South 20.7 mph - N/A   Partly Cloudy
2:50 PM 57.2 °F 50.0 °F 77% 29.68 in 6.2 mi South 17.3 mph - N/A   Scattered Clouds
3:20 PM 57.2 °F 50.0 °F 77% 29.65 in 6.2 mi SSW 20.7 mph 33.4 mph N/A   Scattered Clouds
3:50 PM 57.2 °F 50.0 °F 77% 29.65 in 6.2 mi SSW 20.7 mph 32.2 mph N/A   Scattered Clouds
4:20 PM 57.2 °F 50.0 °F 77% 29.62 in 6.2 mi SSW 19.6 mph - N/A   Scattered Clouds
4:50 PM 57.2 °F 51.8 °F 82% 29.62 in 6.2 mi SSW 21.9 mph 33.4 mph N/A   Scattered Clouds
5:20 PM 55.4 °F 51.8 °F 88% 29.65 in 4.3 mi SW 21.9 mph - N/A Rain Light Rain
5:50 PM 55.4 °F 50.0 °F 82% 29.62 in 6.2 mi SW 16.1 mph - N/A   Scattered Clouds
6:20 PM 55.4 °F 51.8 °F 88% 29.62 in 6.2 mi WSW 13.8 mph - N/A   Partly Cloudy
6:50 PM 53.6 °F 50.0 °F 88% 29.65 in 6.2 mi SW 11.5 mph - N/A   Partly Cloudy
7:20 PM 53.6 °F 50.0 °F 88% 29.65 in - WSW 10.4 mph - N/A   Clear
7:50 PM 53.6 °F 50.0 °F 88% 29.68 in 6.2 mi SW 11.5 mph - N/A   Scattered Clouds
8:20 PM 53.6 °F 48.2 °F 82% 29.68 in 6.2 mi SSW 11.5 mph - N/A   Scattered Clouds
8:50 PM 55.4 °F 48.2 °F 77% 29.68 in 6.2 mi SSW 12.7 mph - N/A   Mostly Cloudy
9:20 PM 53.6 °F 48.2 °F 82% 29.68 in 6.2 mi SW 12.7 mph - N/A   Scattered Clouds
9:50 PM 53.6 °F 48.2 °F 82% 29.68 in 6.2 mi SW 15.0 mph - N/A   Mostly Cloudy
10:20 PM 53.6 °F 48.2 °F 82% 29.68 in 6.2 mi SW 12.7 mph - N/A   Mostly Cloudy
10:50 PM 53.6 °F 48.2 °F 82% 29.68 in - SW 16.1 mph - N/A   Clear
11:20 PM 53.6 °F 48.2 °F 82% 29.68 in - SW 16.1 mph - N/A   Clear
11:50 PM 53.6 °F 48.2 °F 82% 29.68 in 6.2 mi SW 16.1 mph - N/A   Scattered Clouds